Regional Weather Roundup
Issued by NWS

Home | Current Version | Previous Version | Text Only | Print | Product List | Glossary On
Versions: 1 2 3 4 5 6 7 8 9 10 11 12 13 14 15 16 17 18 19 20 21 22 23 24 25 26 27 28 29 30 31 32 33 34 35 36 37 38 39 40 41 42 43 44 45 46 47 48 49 50
000
ASUS44 KLIX 250010
RWRLA
LOUISIANA WEATHER ROUNDUP
NATIONAL WEATHER SERVICE NEW ORLEANS LA
700 PM CDT FRI OCT 24 2014

NOTE: "FAIR" INDICATES FEW OR NO CLOUDS BELOW 12,000 FEET WITH NO
      SIGNIFICANT WEATHER AND/OR OBSTRUCTIONS TO VISIBILITY.
      SKY/WX - SKY CONDITION AND SIGNIFICANT WEATHER.
      TMP - AIR TEMPERATURE.    DP   - DEWPOINT TEMPERATURE.
      RH  - RELATIVE HUMIDITY.  PRES - PRESSURE.
      HX  - HEAT INDEX.         WCI  - WIND CHILL INDEX.

*  THESE STATIONS ARE NOT NWS OR FAA STATIONS AND ARE NOT UNDER
   NWS QUALITY CONTROL.

LAZ040-048-061>063-065-066-069-250100-
SOUTHEAST LOUISIANA

CITY           SKY/WX    TMP DP  RH WIND       PRES   REMARKS
N.O. AUDUBON     N/A     69  50  50 MISG        N/A
6HR MIN TEMP:  69; 6HR MAX TEMP:  76;

N.O. INTL ARPT PTCLDY    69  49  48 NW3       30.06S
6HR MIN TEMP:  69; 6HR MAX TEMP:  76;

N.O. LAKEFRONT CLEAR     72  54  53 N10       30.06R
6HR MIN TEMP:  69; 6HR MAX TEMP:  74;

N.O. DOWNTOWN* FAIR      72  46  40 CALM      30.06S
6HR MIN TEMP:  72; 6HR MAX TEMP:  75;

SLIDELL        CLEAR     61  53  75 CALM      30.05S
6HR MIN TEMP:  61; 6HR MAX TEMP:  78;

BATON ROUGE    CLEAR     64  49  57 CALM      30.08S
6HR MIN TEMP:  64; 6HR MAX TEMP:  77;

BOOTHVILLE     CLEAR     67  55  65 CALM      30.05R
6HR MIN TEMP:  67; 6HR MAX TEMP:  73;

BELLE CHASSE   PTCLDY    60  51  72 CALM      30.06R
6HR MIN TEMP:  60; 6HR MAX TEMP:  76;

BOGALUSA*        N/A     63  47  55 CALM      30.08R
6HR MIN TEMP:  63; 6HR MAX TEMP:  78;

NEW ROADS*     FAIR      63  51  64 CALM      30.10R
6HR MIN TEMP:  63; 6HR MAX TEMP:  74;

GONZALES*      FAIR      61  55  83 CALM      30.07S
6HR MIN TEMP:  61; 6HR MAX TEMP:  76;

HAMMOND*       CLEAR     63  50  63 CALM      30.09R
HOUMA*         CLEAR     68  48  49 NW3       30.07R
PORT FOURCHON* CLEAR     70  50  49 N8        30.09R

$$

LAZ041-044-053-054-250100-
SOUTHWEST LOUISIANA

CITY           SKY/WX    TMP DP  RH WIND       PRES   REMARKS
LAKE CHARLES   CLEAR     65  51  60 CALM      30.10R
6HR MIN TEMP:  65; 6HR MAX TEMP:  77;

LAFAYETTE      CLEAR     66  48  52 NE3       30.09R
6HR MIN TEMP:  66; 6HR MAX TEMP:  77;

PATTERSON      CLEAR     66  52  59 CALM      30.10S
6HR MIN TEMP:  66; 6HR MAX TEMP:  75;

SALT POINT       N/A     67  53  61 CALM      30.08R
6HR MIN TEMP:  67; 6HR MAX TEMP:  77;

NEW IBERIA     CLEAR     65  50  58 N6        30.09R
6HR MIN TEMP:  65; 6HR MAX TEMP:  78;

CHENAULT AIRPK NOT AVBL

$$

LAZ027-028-250100-
CENTRAL LOUISIANA

CITY           SKY/WX    TMP DP  RH WIND       PRES   REMARKS
FORT POLK      CLEAR     63  54  72 N5        30.10S
6HR MIN TEMP:  63; 6HR MAX TEMP:  76;

ALEXANDRIA INT CLEAR     63  55  75 CALM      30.09S
6HR MIN TEMP:  63; 6HR MAX TEMP:  77;

ALEXANDRIA     CLEAR     59  55  87 CALM      30.10S
6HR MIN TEMP:  59; 6HR MAX TEMP:  75;


$$

LAZ001-002-250100-
NORTHWEST LOUISIANA

CITY           SKY/WX    TMP DP  RH WIND       PRES   REMARKS
SHREVEPORT     MOCLDY    68  58  70 CALM      30.10R
6HR MIN TEMP:  68; 6HR MAX TEMP:  78;

BARKSDALE AFB  MOCLDY    67  57  69 E3        30.11R
6HR MIN TEMP:  67; 6HR MAX TEMP:  78;

DTN SHREVEPORT MOCLDY    65  57  75 CALM      30.10S
6HR MIN TEMP:  65; 6HR MAX TEMP:  78;


$$

LAZ014-016-250100-
NORTHEAST LOUISIANA

CITY           SKY/WX    TMP DP  RH WIND       PRES   REMARKS
MONROE         CLEAR     60  53  77 NE3       30.11S
6HR MIN TEMP:  60; 6HR MAX TEMP:  75;

TALLULAH       CLEAR     55  50  83 N5        30.10R
6HR MIN TEMP:  55; 6HR MAX TEMP:  75;


$$




USA.gov is the U.S. government's official web portal to all federal, state and local government web resources and services.